Location: *
(50.8160°S, 176.0219°W)
Time: 22:46:33
(UTC+00:00)

Blok-L - Pass Details

Date: 19 May 2026
Orbit: 356 x 33953 km, 62.9° (Epoch: 30 May)

Event Time Altitude Azimuth Distance (km) Brightness Sun altitude
Exits shadow 18:29:11 10° 230° (SW) 1,393 5.3 -8.0°
Maximum altitude 18:31:33 67° 314° (NW) 523 3.6 -7.6°
Drops below altitude 10° 18:36:23 10° 36° (NE) 2,833 8.5 -6.9°
Sets 18:41:10 0° 38° (NE) 5,310 10.1 -6.2°
